Preview of NWS' New Version of Forecast
This preview is not operational and should not be used for support decisions.

Regional Weather Roundup (RWR)

Issued by National Weather Service (NWS)

                            
000
ASUS43 KTOP 230559
RWRKS 

WEATHER ROUNDUP FOR KANSAS
NATIONAL WEATHER SERVICE GOODLAND KS
1200 AM CST SAT FEB 23 2019

NOTE:  "FAIR" INDICATES FEW OR NO CLOUDS BELOW 12,000 FEET WITH NO
SIGNIFICANT WEATHER AND/OR OBSTRUCTIONS TO VISIBILITY.

KSZ001>006-013>018-027>032-041>047-230700-
NORTHWEST KANSAS
  
CITY           SKY/WX    TMP DP  RH WIND       PRES   REMARKS
GOODLAND       CLOUDY    31  30  96 E13       29.79F FOG     WCI  21  
6HR MIN TEMP:  31; 6HR MAX TEMP:  34; 6HR PCP:  0.01;                

HAYS           FOG       33  33 100 NE7       29.88F VSB 1/2          
HILL CITY      FOG       32  32 100 NE7       29.89F VSB 1/2          
6HR MIN TEMP:  32; 6HR MAX TEMP:  32;                                

RUSSELL        FOG       33  33 100 NE8       29.87F VSB 1/4          
6HR MIN TEMP:  33; 6HR MAX TEMP:  34;                                

$$

KSZ061>065-074>080-084>089-230700-
SOUTHWEST KANSAS
  
CITY           SKY/WX    TMP DP  RH WIND       PRES   REMARKS
DODGE CITY     FOG       36  34  92 E5        29.80F VSB 1/4          
6HR MIN TEMP:  36; 6HR MAX TEMP:  36;                                

ELKHART        CLOUDY    39  39  99 SE21      29.71S WCI  29          
GARDEN CITY    FOG       35  35 100 E6        29.79F VSB 1/2          
6HR MIN TEMP:  35; 6HR MAX TEMP:  38;                                

GREAT BEND     LGT RAIN  34  34 100 NE5       29.86F VSB 1/4          
LIBERAL        CLOUDY    40  36  86 S17       29.76F WCI  31          
$$

KSZ066>073-081>083-090>101-230700-
SOUTHEAST KANSAS
  
CITY           SKY/WX    TMP DP  RH WIND       PRES   REMARKS
CHANUTE        FOG       43  41  93 E7        29.89F VSB 1            
6HR MIN TEMP:  41; 6HR MAX TEMP:  43; 6HR PCP:  0.06;                

COFFEYVILLE    CLOUDY    43  43 100 E6        29.88F FOG              
6HR MIN TEMP:  42; 6HR MAX TEMP:  43; 6HR PCP:  0.08;                

HUTCHINSON     CLOUDY    37  37 100 SE6       29.86F FOG              
6HR MIN TEMP:  37; 6HR MAX TEMP:  37; 6HR PCP:  0.02;                

MEDICINE LODGE   N/A     38  38 100 E3        29.84F                  
NEWTON         FOG       36  36 100 E9        29.87F VSB 1            
PARSONS        CLOUDY    43  43 100 VRB3      29.89F FOG              
6HR MIN TEMP:  41; 6HR MAX TEMP:  43; 6HR PCP: TRACE;                

WICHITA INTL   CLOUDY    40  40 100 E8        29.86F FOG              
6HR MIN TEMP:  39; 6HR MAX TEMP:  41; 6HR PCP:  0.05;                

WICHITA JABRA  FOG       38  37  97 E6        29.87F VSB 1            
6HR MIN TEMP:  38; 6HR MAX TEMP:  38; 6HR PCP:  0.12;                

WICHITA MCCONL CLOUDY   N/A N/A N/A NE7       29.88                   
WINFIELD       CLOUDY    40  39  97 E5        29.88F FOG              
6HR MIN TEMP:  40; 6HR MAX TEMP:  40; 6HR PCP:  0.08;                

$$

KSZ007>012-019>026-033>040-048>060-102>105-230700-
NORTHEAST KANSAS
  
CITY           SKY/WX    TMP DP  RH WIND       PRES   REMARKS
CONCORDIA      FOG       32  32 100 NE6       29.91F VSB 1/4          
6HR MIN TEMP:  32; 6HR MAX TEMP:  35; 6HR PCP: TRACE;                

EMPORIA        LGT RAIN  36  36 100 NE6       29.90F VSB 1/2          
6HR MIN TEMP:  35; 6HR MAX TEMP:  37; 6HR PCP:  0.19;                

LAWRENCE       LGT RAIN  36  34  92 E7        29.95F FOG              
6HR MIN TEMP:  35; 6HR MAX TEMP:  37; 6HR PCP:  0.29;                

MANHATTAN      LGT RAIN  35  35 100 E5        29.92S FOG              
6HR MIN TEMP:  35; 6HR MAX TEMP:  37; 6HR PCP:  0.04;                

OLATHE IND     LGT RAIN  36  36 100 E6        29.94F FOG              
6HR MIN TEMP:  35; 6HR MAX TEMP:  36; 6HR PCP:  0.47;                

OLATHE EXE     HVY RAIN  35  35 100 E6        29.94F FOG              
6HR MIN TEMP:  35; 6HR MAX TEMP:  36; 6HR PCP:  0.25;                

SALINA         FOG       35  35 100 E5        29.91F VSB 3/4          
6HR MIN TEMP:  35; 6HR MAX TEMP:  38; 6HR PCP:  0.01;                

TOPEKA BILLARD LGT RAIN  36  34  92 E5        29.93F FOG              
6HR MIN TEMP:  35; 6HR MAX TEMP:  36; 6HR PCP:  0.36;                

TOPEKA FORBES  RAIN      36  34  92 E5        29.92F FOG              
6HR MIN TEMP:  35; 6HR MAX TEMP:  36; 6HR PCP:  0.41;                

$$